Cloud_Cover
71 98 100 100 77 100 100 100 100 100 100 100 100 100 100 18 0 0 0 0 0 0 0 0 5 17 100 100 100 100 100 100 99 99 69 100 15 5 5 2 18 87 5 0 7
100 89 100 81 100 100 100 100 100 100 100 100 100 44 36 18 10 0 0 0 0 0 0 0 5 37 100 100 100 100 100 89 79 80 64 100 90 12 38 26 3 5 4 0 11
89 100 100 100 100 100 96 50 100 100 95 94 33 24 21 15 0 0 0 0 0 0 0 0 1 5 35 99 100 100 98 100 100 100 100 100 81 55 23 51 3 5 10 38 26
76 100 100 100 100 100 100 99 100 34 33 17 19 22 1 14 0 0 0 0 0 0 0 0 0 6 5 37 96 100 100 100 100 100 100 58 63 7 82 34 37 5 0 0 4
26 40 97 100 100 100 100 100 61 42 70 43 10 3 1 0 0 0 0 0 0 0 0 0 47 80 35 48 99 100 100 100 100 100 100 99 65 63 86 5 60 20 4 5 5
17 20 19 80 46 47 100 100 30 67 100 39 14 0 0 0 0 0 0 0 0 0 0 0 52 98 67 31 97 100 100 100 100 99 100 92 85 98 88 19 8 37 24 5 5
36 54 98 100 100 100 95 34 100 100 100 30 20 0 0 0 0 0 0 0 0 0 0 0 94 72 1 96 18 100 100 100 100 93 100 99 93 100 100 97 100 65 93 5 16
100 100 100 100 100 100 100 100 93 94 35 15 7 0 0 0 0 0 0 0 0 0 0 0 15 70 61 18 4 98 100 100 100 100 100 100 98 100 96 100 100 61 56 51 14
90 100 100 100 100 100 99 44 28 73 11 0 0 0 0 0 0 0 0 0 0 0 0 0 4 97 1 51 3 2 13 100 100 100 100 100 100 88 98 100 100 100 100 100 11
87 100 100 100 100 100 34 0 7 26 9 0 0 0 0 0 0 0 0 0 0 0 0 0 0 5 2 0 2 5 7 59 100 100 100 100 100 100 100 100 100 100 74 98 87
96 100 100 100 100 99 25 0 0 0 0 0 0 0 0 0 0 0 0 0 0 0 0 0 0 2 4 3 0 37 67 22 92 100 100 100 100 100 100 97 100 99 100 36 61
100 100 100 100 100 100 35 0 0 0 0 0 0 0 0 0 0 0 0 0 0 0 0 0 0 1 5 5 15 75 20 8 100 100 100 100 100 100 100 99 68 100 100 30 5
100 100 100 100 39 24 0 0 0 0 0 0 0 0 0 0 0 0 0 0 0 0 0 0 0 0 5 6 40 67 22 94 100 100 100 100 100 100 100 98 73 100 93 67 48
44 100 100 98 0 0 0 0 0 0 0 0 0 0 0 0 0 0 0 0 0 0 0 0 0 1 5 77 44 6 45 78 100 100 100 100 100 100 100 93 79 85 100 92 98
100 100 100 98 18 0 0 0 0 0 0 0 0 0 0 0 0 0 0 0 0 0 0 0 0 0 5 86 96 11 14 36 100 100 100 100 100 100 100 100 100 100 86 99 89
100 100 99 42 28 0 0 0 0 0 0 0 0 0 0 0 0 0 0 0 0 0 0 0 0 0 2 95 4 75 72 100 100 100 100 100 100 100 100 100 94 99 81 96 59
100 100 91 0 0 0 0 0 0 0 0 0 0 0 0 0 0 0 0 0 0 0 0 0 0 2 1 18 1 97 15 98 100 100 100 100 100 100 100 100 89 96 99 100 17
100 93 16 1 0 0 0 0 0 0 0 0 0 0 0 0 4 0 0 0 0 0 0 2 7 91 0 0 1 0 59 100 100 100 100 100 100 100 100 100 100 21 100 100 96
28 21 4 0 0 0 0 0 0 0 1 0 0 0 0 0 0 0 0 0 5 6 2 5 81 12 2 0 0 20 28 99 100 100 100 100 100 100 100 100 100 100 100 100 98
0 0 0 0 0 0 0 0 4 18 5 5 5 0 3 5 0 0 0 0 6 100 25 20 78 4 0 5 86 34 62 99 100 99 100 100 100 100 100 100 100 100 100 100 100
0 0 0 0 0 0 1 2 8 89 50 16 5 5 3 2 0 0 0 5 75 100 100 100 35 56 5 2 40 4 15 71 100 100 100 88 100 100 100 100 100 92 100 100 100
0 0 0 2 1 5 5 5 24 97 6 40 76 5 8 5 5 5 5 6 97 95 100 100 100 91 90 88 5 9 6 6 63 100 100 100 100 100 100 100 100 100 100 100 100
0 0 0 1 5 5 75 49 99 46 5 7 100 72 5 5 95 2 24 5 64 99 100 100 100 100 54 54 80 26 5 5 5 100 100 90 100 100 100 100 100 100 100 100 100
4 4 5 49 43 80 100 100 99 5 5 100 100 100 26 28 100 19 92 42 25 99 100 100 100 100 97 94 74 29 5 0 2 82 100 100 100 100 100 100 100 100 100 100 100
84 100 100 100 100 100 100 100 97 6 5 32 96 100 29 100 64 58 91 92 90 100 100 100 100 51 100 100 68 74 5 5 5 51 100 100 100 100 100 100 100 100 100 100 100
5 5 5 19 37 100 100 100 99 85 56 8 87 71 99 66 5 1 63 98 100 100 100 100 100 100 68 99 100 100 62 24 100 6 6 100 100 7 94 100 100 100 100 100 100
5 5 5 5 67 100 100 72 100 100 29 6 100 54 6 15 15 1 22 100 100 100 100 100 100 100 98 100 100 100 100 86 58 5 0 83 80 38 100 100 100 100 100 100 100